This is the latest recevied weather packets stored in our database for station/object N8XHB. If no packets are shown the sender has not sent any weather packets the latest 10 day(s).
| Time | Temp. | Humidity | Pressure | Rain* | Wind** | Luminosity | Snow |
|---|---|---|---|---|---|---|---|
| 1777892976 | 10.56° C | 74% | 1003.4 hPa | 0 mm | - | 30 W/m² | - |
| 1777892672 | 10.56° C | 74% | 1003.2 hPa | 0 mm | - | 24 W/m² | - |
| 1777892368 | 10° C | 74% | 1003.3 hPa | 0 mm | - | 18 W/m² | - |
| 1777892064 | 10° C | 75% | 1003.4 hPa | 0 mm | - | 14 W/m² | - |
| 1777891762 | 10° C | 74% | 1003.4 hPa | 0 mm | - | 10 W/m² | - |
| 1777891458 | 10° C | 74% | 1003.3 hPa | 0 mm | - | 7 W/m² | - |
| 1777891154 | 10° C | 74% | 1003.2 hPa | 0 mm | - | 5 W/m² | - |
| 1777890849 | 10° C | 74% | 1003.4 hPa | 0 mm | - | 3 W/m² | - |
| 1777890545 | 10° C | 74% | 1003.5 hPa | 0 mm | - | 2 W/m² | - |
| 1777890240 | 10° C | 74% | 1003.5 hPa | 0 mm | - | 1 W/m² | - |
| 1777889937 | 10° C | 74% | 1003.4 hPa | 0 mm | - | 0 W/m² | - |
| 1777889635 | 10° C | 74% | 1003.5 hPa | 0 mm | - | 0 W/m² | - |
| 1777889332 | 10° C | 74% | 1003.3 hPa | 0 mm | - | 0 W/m² | - |
| 1777889029 | 10° C | 74% | 1003.4 hPa | 0 mm | - | 0 W/m² | - |
| 1777888727 | 10° C | 74% | 1003.5 hPa | 0 mm | - | 0 W/m² | - |
| 1777888422 | 10° C | 74% | 1003.4 hPa | 0 mm | - | 0 W/m² | - |
| 1777888119 | 10° C | 74% | 1003.4 hPa | 0 mm | - | 0 W/m² | - |
| 1777887816 | 10° C | 74% | 1003.3 hPa | 0 mm | - | 0 W/m² | - |
| 1777887513 | 10° C | 73% | 1003.3 hPa | 0 mm | - | 0 W/m² | - |
| 1777887209 | 10° C | 74% | 1003.5 hPa | 0 mm | - | 0 W/m² | - |
| 1777886905 | 10° C | 74% | 1003.4 hPa | 0 mm | - | 0 W/m² | - |
| 1777886600 | 10° C | 74% | 1003.5 hPa | 0 mm | - | 0 W/m² | - |
| 1777886298 | 10° C | 74% | 1003.4 hPa | 0 mm | - | 0 W/m² | - |
| 1777885996 | 10° C | 73% | 1003.4 hPa | 0 mm | - | 0 W/m² | - |
| 1777885695 | 10° C | 73% | 1003.6 hPa | 0 mm | - | 0 W/m² | - |
* Rain latest hour (hover to see other rain measurements)
** Current wind speed in m/s (hover to see current wind gust speed)